Temperature
18 18 18 18 18 17 17 17 17 16 16 16 16 16 16 15 15 15 15 14 14 14 14 13 13 13 13 13 13 13 13 12 12 12 12 12 12 12 12 12 11 11 11
18 18 18 18 18 17 17 17 17 17 16 16 16 16 15 15 15 15 15 14 14 14 14 13 13 13 13 13 13 13 12 12 12 12 12 12 12 12 11 11 11 11 11
18 18 18 18 18 17 17 17 17 16 16 16 16 15 15 15 15 15 14 14 14 14 14 13 13 13 13 13 13 13 12 12 12 12 12 12 12 11 11 11 11 11 11
18 18 18 18 18 17 17 17 17 16 16 16 16 15 15 15 15 14 14 14 14 14 13 13 13 13 13 13 13 12 12 12 12 12 12 12 11 11 11 11 11 11 11
18 18 18 18 17 17 17 17 16 16 16 16 15 15 15 15 15 14 14 14 14 14 13 13 13 13 13 13 12 12 12 12 12 11 11 11 11 11 11 11 11 11 11
18 18 18 18 17 17 17 17 16 16 16 15 15 15 15 15 14 14 14 14 14 13 13 13 13 13 13 12 12 12 12 12 11 11 11 11 11 11 10 10 10 10 10
18 18 18 17 17 17 17 16 16 16 16 15 15 15 15 15 14 14 14 14 13 13 13 13 13 13 12 12 12 12 12 11 11 11 11 11 10 10 10 10 10 10 10
18 18 18 17 17 17 16 16 16 16 15 15 15 15 14 14 14 14 13 13 13 13 13 12 12 12 12 12 12 12 12 11 11 11 11 10 10 10 10 10 9 9 9
18 18 17 17 17 16 16 16 15 15 15 15 14 14 14 14 14 13 13 13 13 13 12 12 12 12 12 11 11 11 11 11 11 10 10 10 10 10 9 9 9 9 9
18 18 17 17 16 16 16 16 15 15 14 14 14 14 14 13 13 13 13 13 12 12 12 12 11 11 11 11 11 11 11 11 10 10 10 10 10 9 9 9 8 8 8
18 17 17 16 16 16 15 15 15 14 14 14 14 13 13 13 13 12 12 12 12 12 12 11 11 11 11 10 10 10 10 10 10 10 9 9 9 9 9 8 8 8 7
17 17 16 16 16 15 15 15 14 14 14 14 13 13 13 12 12 12 12 11 11 11 11 11 11 10 10 10 10 10 9 9 9 9 9 9 9 8 8 8 7 7 7
17 16 16 16 15 15 14 14 14 13 13 13 13 13 12 12 12 12 11 11 11 11 11 10 10 10 10 9 9 9 9 9 9 8 8 8 8 8 7 7 7 7 7
16 16 16 15 15 14 14 14 13 13 13 13 12 12 12 12 11 11 11 11 10 10 10 10 10 9 9 9 9 9 8 8 8 8 7 7 7 7 7 6 6 6 6
16 16 15 15 14 14 14 13 13 13 12 12 12 12 11 11 11 10 10 10 10 10 9 9 9 9 9 9 8 8 8 7 7 7 7 7 6 6 6 6 6 5 5
15 15 14 14 14 13 13 13 12 12 11 11 11 11 11 10 10 10 10 9 9 9 9 9 9 8 8 8 7 7 7 7 6 6 6 6 5 5 5 5 5 5 4
14 14 14 13 13 13 12 12 12 11 11 11 10 10 10 10 10 9 9 9 9 8 8 8 8 7 7 7 7 6 6 6 6 5 5 5 5 5 4 4 4 4 4
14 13 13 13 12 12 12 11 11 11 10 10 10 10 10 9 9 9 9 8 8 8 8 7 7 7 6 6 6 6 5 5 5 5 4 4 4 4 3 3 3 3 3
13 12 12 12 11 11 11 11 10 10 10 10 9 9 9 9 8 8 8 8 7 7 7 7 6 6 6 5 5 5 5 4 4 4 4 4 3 3 3 3 2 2 2
12 12 11 11 11 10 10 10 9 9 9 9 9 9 8 8 8 8 7 7 7 6 6 6 6 5 5 5 5 4 4 4 4 3 3 3 3 2 2 2 2 2 1
11 11 11 10 10 10 9 9 9 9 8 8 8 8 7 7 7 7 7 6 6 6 6 5 5 5 4 4 4 4 3 3 3 3 2 2 2 2 2 1 1 1 1
11 10 10 10 9 9 9 9 8 8 8 8 7 7 7 7 6 6 6 6 5 5 5 5 4 4 4 3 3 3 3 2 2 2 2 2 2 2 1 1 1 1 1
10 10 9 9 9 8 8 8 8 8 7 7 7 7 6 6 6 6 5 5 5 5 4 4 4 3 3 3 2 2 2 2 2 2 2 1 1 1 1 1 1 0 0
9 9 9 9 8 8 8 8 7 7 7 7 6 6 6 5 5 5 5 4 4 4 4 3 3 3 2 2 2 2 2 1 1 1 1 1 1 1 0 0 0 -0 -0
9 9 8 8 8 8 7 7 7 7 6 6 6 5 5 5 5 4 4 4 4 3 3 3 2 2 2 1 1 1 1 1 1 1 1 0 0 0 -0 -0 -0 -1 -1
8 8 8 7 7 7 7 7 6 6 6 5 5 5 5 4 4 4 3 3 3 2 2 2 2 2 1 1 1 1 1 1 1 0 0 0 -0 -0 -1 -1 -1 -1 -1
Wind_Speed
7 6 5 5 5 5 5 5 5 4 5 5 5 4 3 3 3 3 2 2 2 1 1 1 1 1 1 1 1 1 1 2 2 3 2 3 2 3 5 5 5 5 5
7 6 6 5 5 5 5 5 5 5 4 5 5 4 3 3 3 3 3 3 3 1 0 1 0 1 1 1 1 1 0 1 2 2 3 3 2 3 3 3 4 5 5
7 7 6 5 6 5 5 4 4 5 4 4 4 4 4 4 4 3 4 3 3 2 2 2 1 1 1 0 0 0 0 0 1 1 3 2 2 3 3 3 4 4 5
7 7 7 6 6 5 5 4 4 5 4 4 4 4 4 3 3 3 3 3 2 1 1 1 2 2 3 2 1 1 1 1 1 0 2 3 3 3 2 3 4 3 3
8 7 7 6 5 5 4 4 4 4 5 4 4 3 3 3 3 4 4 3 3 1 0 1 1 2 3 2 2 2 2 1 0 0 2 2 3 3 3 3 3 4 4
8 8 6 6 5 5 5 4 4 4 4 4 4 4 3 2 3 5 5 3 3 2 1 1 1 1 1 1 1 2 3 2 2 1 2 2 4 3 3 3 3 3 4
8 7 6 7 6 5 5 5 5 5 4 4 4 4 3 2 4 5 6 4 3 2 2 1 1 1 1 1 1 1 1 2 3 3 3 4 4 4 3 3 2 3 4
7 7 7 7 6 5 5 5 4 4 4 4 4 4 3 2 3 4 5 3 2 1 1 2 2 2 1 1 0 1 2 3 3 2 4 5 5 4 4 3 4 3 4
7 7 7 7 7 6 6 5 4 4 4 4 3 4 3 2 2 4 5 3 2 1 1 1 2 2 3 1 1 1 3 4 5 4 5 5 6 6 3 0 2 2 4
7 7 7 7 7 7 6 5 4 4 4 4 3 3 3 2 2 3 5 3 2 1 1 2 3 3 4 2 2 2 3 4 3 4 4 6 5 6 5 2 2 2 3
6 5 5 6 6 6 5 4 4 4 4 4 3 2 2 3 2 3 4 3 3 2 2 2 3 4 3 2 1 2 4 3 2 2 3 4 4 4 4 3 3 3 3
5 5 5 4 5 5 5 4 4 5 4 3 3 2 1 2 2 2 3 4 3 3 3 3 3 3 2 2 2 3 4 2 1 1 2 3 4 4 4 4 4 4 5
6 5 4 4 3 4 5 5 3 4 4 3 3 2 2 1 2 2 3 4 4 2 2 2 2 2 3 3 3 3 2 1 1 1 3 3 3 4 4 4 4 5 5
6 5 5 5 4 3 3 3 4 4 4 3 3 3 2 1 1 1 1 1 2 2 1 1 2 2 2 2 3 2 1 0 1 2 3 4 3 3 3 3 3 3 4
5 5 5 4 4 4 3 2 3 3 4 5 4 4 4 3 4 4 3 2 2 2 1 1 1 2 2 2 2 2 2 1 1 2 2 3 3 3 4 3 2 2 3
5 4 4 4 3 4 4 2 3 2 2 3 3 3 3 3 3 2 3 3 3 2 2 0 1 1 1 2 2 2 2 2 2 2 2 3 3 4 4 4 3 3 4
5 5 4 4 4 4 3 4 2 3 4 2 1 2 2 2 2 2 2 2 2 3 2 1 2 2 2 2 2 2 2 3 2 2 2 3 3 4 4 4 4 4 5
5 5 5 4 4 4 4 3 3 3 1 1 2 1 1 1 1 1 2 2 1 1 1 2 2 3 2 2 2 2 2 2 2 2 2 3 3 3 4 4 4 5 6
4 3 3 3 3 3 3 3 2 2 2 1 1 2 2 1 1 0 2 1 2 2 2 2 2 2 2 2 2 2 2 2 2 3 3 3 3 3 4 5 5 7 6
3 5 5 3 3 3 3 3 2 2 2 1 1 1 0 1 1 1 0 1 2 2 2 2 2 2 2 2 2 2 2 3 3 3 4 4 4 4 5 6 5 6 6
3 3 4 3 3 3 3 3 3 3 3 2 2 2 2 1 2 2 2 2 2 2 2 2 2 2 2 2 2 2 3 3 4 4 4 4 4 4 5 5 6 6 6
3 3 2 3 2 2 2 3 3 3 3 2 2 1 2 1 1 1 1 2 2 2 2 2 2 2 2 3 3 3 3 4 4 4 5 5 5 5 5 5 6 6 6
3 3 2 2 2 2 2 2 2 2 2 2 2 1 1 1 2 2 2 2 2 2 1 2 2 2 3 3 3 3 4 5 5 5 5 6 6 6 6 6 7 7 7
3 3 3 2 2 2 2 2 2 2 2 2 2 1 1 2 2 2 2 2 2 2 2 2 2 3 4 4 4 4 5 6 6 6 6 6 6 6 6 7 7 8 8
3 3 2 2 2 2 2 2 2 2 2 2 2 2 2 2 2 2 2 2 2 2 2 2 2 3 4 6 6 6 7 8 9 8 7 6 6 7 7 8 7 8 8
3 3 2 2 2 2 2 2 2 1 1 1 2 2 2 2 2 2 2 2 2 3 3 3 4 4 5 5 6 8 9 10 10 10 8 6 6 6 7 7 8 8 8
Wind_Direction
177 175 166 174 174 165 167 175 176 178 168 168 166 161 162 159 146 135 137 131 117 80 64 106 83 87 73 49 71 86 106 138 184 284 288 306 324 323 332 339 337 331 330
174 167 165 164 163 166 175 180 173 168 171 172 162 160 169 167 158 154 148 139 140 141 145 105 146 94 72 57 81 78 104 161 166 275 308 321 311 304 307 316 328 329 320
164 164 165 167 170 177 182 180 171 170 169 164 160 166 175 172 166 166 160 157 160 176 176 168 194 142 140 283 121 125 294 11 131 202 295 307 309 320 333 325 328 328 320
166 167 174 181 181 181 177 174 173 170 163 165 164 167 170 165 163 165 162 162 166 189 194 184 190 178 192 205 195 201 166 54 31 3 308 313 309 313 338 328 326 321 315
168 176 188 185 173 166 166 168 163 162 165 161 154 154 155 155 174 170 169 165 160 168 236 253 236 213 202 196 187 192 160 138 68 339 306 318 314 318 305 297 306 310 311
175 184 182 171 168 171 173 168 167 170 163 150 154 154 151 170 172 166 157 152 153 158 197 264 284 278 272 248 229 194 171 170 201 218 258 271 278 274 282 292 300 328 314
179 179 176 174 176 182 176 167 174 174 161 155 163 156 163 183 165 161 161 147 154 168 183 213 282 316 332 310 308 317 294 275 215 198 222 245 256 255 261 288 275 261 266
179 180 179 175 176 175 170 179 183 171 164 165 167 170 169 199 176 168 165 145 140 160 179 198 227 279 268 211 192 331 304 300 280 255 230 244 250 250 230 240 253 273 282
181 186 184 178 177 174 179 187 184 170 170 169 167 168 173 212 181 169 152 138 146 208 234 236 231 243 267 242 155 275 301 305 309 303 287 289 297 299 284 327 324 323 304
190 187 179 173 172 177 182 177 164 159 170 163 159 168 173 188 178 170 152 143 159 240 290 291 276 262 268 249 209 228 274 286 305 329 332 327 319 313 306 259 230 257 279
178 162 162 170 172 171 165 157 151 152 150 154 164 180 188 198 197 186 171 160 186 208 249 281 292 300 299 286 245 224 260 284 297 304 313 319 324 324 319 298 248 226 246
144 146 157 162 164 158 150 153 150 148 152 164 165 187 227 233 221 218 199 194 192 196 234 255 278 312 322 323 309 303 308 331 349 332 325 316 312 305 301 299 286 263 251
138 146 150 143 140 140 148 153 147 152 164 180 180 201 235 251 249 235 216 215 208 207 238 255 286 322 332 329 316 319 333 351 348 324 304 293 286 288 307 315 315 307 295
146 151 145 140 132 124 133 150 156 168 178 186 193 207 221 239 250 247 232 240 229 225 262 310 333 334 320 314 332 335 327 270 274 279 292 296 306 316 315 313 312 317 315
133 136 136 138 141 131 120 138 166 191 192 190 202 199 195 224 240 211 186 202 205 209 159 28 8 349 339 336 343 341 339 346 325 306 304 311 318 321 317 319 314 313 304
125 128 135 137 134 132 126 85 41 72 118 166 177 179 211 217 220 197 202 216 210 171 123 187 265 263 266 281 294 308 313 303 293 293 299 303 308 310 310 315 316 308 299
138 142 139 139 143 148 148 146 121 18 34 66 138 164 181 195 201 203 196 201 202 154 152 225 245 249 256 261 264 267 277 280 277 286 294 299 302 303 305 308 310 307 301
132 139 142 151 156 160 163 162 157 152 127 331 335 313 216 203 195 189 160 109 63 91 210 234 248 251 250 253 257 262 275 298 301 300 299 303 307 304 303 303 302 299 298
132 140 145 146 149 154 155 151 153 159 170 211 345 344 339 349 8 43 123 139 202 235 243 252 254 251 252 251 254 260 270 285 295 297 299 298 295 291 291 293 295 299 298
138 138 136 138 141 143 147 152 159 170 183 196 221 254 347 57 25 319 252 213 219 241 249 254 262 263 259 255 256 260 276 285 292 290 289 289 285 281 284 289 292 295 292
132 138 131 128 147 159 162 171 179 184 196 213 237 241 191 177 213 234 234 229 228 235 240 250 267 274 274 271 265 269 272 279 279 279 280 281 281 282 280 280 283 286 288
135 139 144 152 158 163 171 180 180 188 201 213 254 260 219 193 208 229 240 246 244 237 227 222 247 263 265 270 266 264 272 278 281 282 282 281 282 281 282 282 284 288 289
130 130 133 140 151 152 152 167 177 190 208 220 230 238 231 221 228 238 248 252 245 246 240 221 240 262 273 280 279 266 264 271 278 280 281 284 286 285 286 286 288 292 290
143 146 151 155 151 157 169 186 193 197 205 217 229 232 231 231 240 248 255 261 249 247 241 241 243 254 273 286 292 287 283 286 290 290 282 278 283 286 285 284 285 286 287
147 153 160 166 167 175 186 198 205 208 214 222 227 233 244 249 253 257 258 246 251 256 259 266 269 272 276 283 290 294 293 293 295 297 294 281 279 282 285 283 284 287 287
145 150 155 162 172 181 187 197 205 206 218 227 227 230 233 237 242 251 255 251 260 266 271 278 277 281 285 285 284 291 294 294 293 293 296 289 282 282 286 284 286 284 285
Height
1554 1556 1557 1559 1560 1561 1561 1562 1563 1563 1564 1564 1564 1564 1564 1564 1564 1564 1564 1564 1563 1563 1562 1562 1562 1561 1561 1560 1559 1559 1558 1557 1556 1555 1554 1552 1550 1549 1547 1545 1543 1541 1540
1552 1554 1556 1557 1558 1559 1560 1561 1562 1562 1563 1563 1563 1563 1563 1564 1564 1563 1563 1563 1563 1562 1562 1561 1561 1560 1560 1559 1558 1558 1557 1556 1555 1553 1552 1550 1549 1548 1546 1544 1542 1541 1539
1550 1552 1554 1555 1556 1557 1558 1559 1560 1561 1561 1561 1562 1562 1562 1562 1562 1562 1562 1562 1562 1561 1561 1560 1560 1559 1559 1558 1557 1557 1556 1555 1554 1552 1550 1549 1548 1546 1544 1543 1541 1539 1538
1548 1550 1551 1553 1554 1555 1556 1557 1558 1559 1559 1560 1560 1560 1560 1561 1561 1561 1561 1561 1561 1560 1560 1559 1559 1558 1557 1557 1556 1555 1554 1553 1552 1551 1549 1547 1546 1544 1543 1541 1539 1537 1536
1546 1548 1549 1551 1552 1553 1554 1555 1556 1556 1557 1557 1558 1558 1559 1559 1559 1559 1559 1559 1559 1559 1558 1558 1557 1557 1556 1555 1554 1553 1552 1551 1550 1549 1547 1546 1544 1542 1541 1539 1537 1535 1533
1543 1545 1547 1548 1549 1550 1551 1552 1553 1554 1554 1555 1556 1556 1557 1557 1557 1557 1558 1558 1557 1557 1556 1556 1556 1555 1554 1553 1553 1551 1551 1549 1548 1547 1545 1544 1542 1541 1539 1537 1535 1533 1530
1540 1542 1544 1545 1546 1547 1548 1549 1550 1551 1552 1552 1553 1554 1554 1555 1555 1555 1555 1555 1555 1555 1554 1554 1553 1553 1552 1551 1550 1549 1548 1547 1546 1545 1543 1542 1540 1538 1537 1535 1533 1531 1528
1537 1539 1540 1542 1543 1544 1545 1546 1547 1548 1549 1549 1550 1551 1552 1552 1553 1553 1553 1553 1553 1552 1552 1552 1551 1550 1550 1549 1547 1546 1545 1544 1543 1542 1541 1539 1538 1536 1534 1533 1530 1528 1526
1534 1536 1537 1539 1540 1541 1542 1543 1544 1545 1546 1547 1547 1548 1549 1549 1550 1550 1550 1550 1550 1550 1549 1549 1548 1547 1547 1546 1544 1543 1542 1541 1540 1539 1538 1536 1535 1533 1531 1529 1527 1525 1522
1531 1533 1534 1536 1537 1538 1539 1540 1541 1542 1543 1544 1545 1545 1546 1546 1547 1547 1547 1547 1546 1546 1546 1546 1545 1544 1543 1542 1541 1540 1538 1538 1537 1535 1534 1533 1531 1529 1528 1526 1524 1521 1518
1529 1530 1532 1533 1534 1535 1536 1537 1538 1539 1540 1541 1542 1542 1543 1543 1544 1544 1544 1544 1543 1543 1543 1542 1542 1541 1540 1539 1538 1536 1535 1534 1533 1531 1530 1528 1527 1525 1523 1522 1520 1518 1515
1526 1528 1529 1530 1531 1532 1533 1534 1535 1536 1537 1538 1538 1539 1539 1540 1540 1541 1541 1541 1540 1540 1539 1539 1538 1537 1536 1535 1534 1533 1532 1531 1529 1527 1525 1524 1522 1520 1519 1517 1515 1513 1511
1524 1525 1526 1528 1529 1530 1531 1531 1532 1533 1534 1535 1535 1535 1536 1537 1537 1537 1537 1537 1537 1536 1536 1535 1535 1534 1533 1532 1531 1529 1528 1527 1525 1523 1521 1520 1518 1516 1514 1512 1511 1509 1507
1521 1522 1524 1525 1526 1527 1528 1529 1529 1530 1531 1531 1532 1532 1533 1533 1533 1534 1534 1534 1533 1533 1532 1532 1531 1530 1529 1528 1527 1525 1524 1523 1521 1519 1518 1516 1514 1512 1510 1508 1505 1503 1501
1519 1520 1521 1522 1523 1524 1525 1526 1527 1528 1528 1529 1529 1529 1529 1529 1530 1531 1530 1530 1530 1529 1528 1527 1526 1526 1525 1524 1523 1522 1520 1519 1517 1515 1514 1512 1510 1508 1505 1503 1501 1498 1495
1517 1518 1519 1520 1521 1521 1522 1523 1524 1525 1526 1526 1527 1527 1527 1527 1527 1527 1527 1526 1526 1526 1524 1523 1522 1521 1521 1520 1519 1517 1516 1515 1513 1511 1509 1507 1505 1503 1501 1499 1496 1494 1491
1516 1517 1517 1518 1518 1519 1520 1520 1521 1522 1523 1523 1523 1523 1523 1523 1523 1523 1523 1522 1522 1521 1520 1519 1518 1517 1517 1516 1515 1513 1512 1510 1509 1507 1505 1503 1501 1498 1496 1494 1491 1489 1486
1514 1515 1515 1516 1516 1517 1518 1518 1518 1519 1519 1519 1519 1520 1520 1520 1520 1519 1519 1519 1518 1517 1516 1515 1514 1514 1512 1511 1510 1509 1507 1506 1504 1502 1500 1498 1496 1494 1491 1489 1486 1483 1481
1512 1513 1513 1514 1514 1515 1515 1516 1516 1516 1516 1516 1516 1516 1517 1516 1516 1516 1515 1515 1513 1513 1512 1511 1510 1509 1508 1507 1505 1504 1503 1501 1499 1497 1495 1493 1491 1489 1486 1484 1481 1478 1476
1510 1511 1511 1511 1512 1512 1513 1513 1513 1514 1514 1514 1513 1513 1513 1513 1512 1512 1511 1511 1510 1509 1508 1507 1506 1505 1504 1502 1501 1499 1498 1496 1494 1492 1490 1488 1486 1483 1481 1478 1475 1473 1470
1508 1508 1509 1509 1509 1510 1510 1510 1511 1511 1511 1510 1510 1510 1510 1509 1509 1508 1507 1507 1506 1505 1504 1503 1502 1500 1499 1498 1496 1494 1492 1490 1489 1487 1484 1482 1480 1477 1475 1472 1470 1467 1464
1506 1506 1506 1506 1507 1507 1507 1508 1508 1508 1507 1507 1507 1507 1506 1506 1505 1504 1503 1503 1502 1501 1500 1499 1497 1496 1494 1493 1491 1489 1487 1485 1483 1481 1479 1476 1474 1472 1469 1466 1463 1461 1458
1503 1503 1504 1504 1504 1504 1505 1505 1504 1504 1504 1504 1503 1503 1502 1502 1501 1500 1499 1498 1497 1496 1495 1494 1492 1490 1489 1487 1486 1484 1482 1480 1478 1475 1473 1470 1468 1465 1463 1460 1457 1455 1452
1501 1501 1501 1501 1501 1501 1501 1501 1501 1501 1500 1500 1499 1499 1498 1497 1497 1496 1495 1493 1492 1491 1490 1488 1486 1485 1483 1482 1480 1478 1476 1474 1472 1470 1467 1464 1461 1459 1456 1454 1451 1449 1446
1498 1498 1498 1498 1498 1498 1498 1498 1497 1497 1496 1496 1495 1495 1494 1493 1492 1491 1490 1488 1487 1485 1484 1483 1481 1479 1478 1476 1474 1472 1470 1468 1466 1464 1461 1458 1455 1453 1450 1448 1445 1443 1440
1496 1496 1496 1496 1495 1495 1495 1494 1494 1493 1492 1492 1491 1490 1489 1488 1487 1486 1485 1483 1482 1480 1479 1477 1476 1474 1472 1470 1468 1466 1464 1462 1459 1457 1455 1452 1449 1446 1444 1442 1439 1437 1434